User: anonymous   Login
Location: Bittelbronn
(48.4454°N, 8.5870°E)
Time: 12:14:09
(UTC+00:00)
Language:

Cosmos 2221 Rocket - Orbit

View from above orbital plane
View from above orbital plane
View from above satellite
View from above satellite

Ground track
Ground track

The orbit data is extracted from the following two-line orbital elements,

1 22237U 92080B   24200.77889241  .00000880  00000-0  11466-3 0  9996
2 22237  82.5098 228.8484 0019810  22.3819 337.8253 14.79391246705852
Epoch (UTC): 18 July 2024 18:41:36
Eccentricity: 0.0019810
inclination: 82.5098°
perigee height: 617 km
apogee height: 645 km
right ascension of ascending node: 228.8484°
argument of perigee: 22.3819°
revolutions per day: 14.79391246
mean anomaly at epoch: 337.8253°
orbit number at epoch: 70585

The dashed part of the orbit path shows where the satellite is in the earth's shadow,  

DLR